Showing default

CONNECTA IOT-11, 64557

Orbit data source: Space-Track

CONNECTA IOT-11, 64557 is a payload satellite owned by Plan-S (TR) in SSO that was launched on Mon, 23 Jun 2025 UTC via an FALCON 9 launch vehicle from the Air Force Western Test Range (AFWTR). Payload-class satellites include a variety of spacecraft equipped with specific instruments for various scientific and technological missions. These include communications satellites like Starlink; space stations such as the ISS; scientific satellites like the Hubble; Earth observation satellites from companies like Planet Labs, Umbra, and HawkEye 360; GPS; miniature CubeSats for education and research; and military/defense satellites.

Loading next visibility...
Identifier
64557, 2025-135AF
Orbit
SSO
Country
Flag of TRTR / TURK
Related business
Manufacturer
Plan-S
Mission
Operational Commercial Communications
Bus & Motor
CUBESAT 6U, Unknown motor
Mass
10 kg wet, 10 kg dry
Launch date (UTC)
2025-06-23 (11 months ago)
Launch vehicle
FALCON 9
Launch site
Air Force Western Test Range (AFWTR)
Object type
Payload
Rocket body
Debris
Shape & HBR
Box, 2.2 m
Radar Cross Section
0.080 m², Medium (>0.1 m² and < 1m²)

Expand to show TLE details & history
Last TLE update: 11 hours ago

TLE from 11 hours ago
0 CONNECTA IOT-11
1 64557U 25135AF  26133.28927264  .00002057  00000-0  98106-4 0  9990
2 64557  97.4674 248.9237 0002972 106.7260 253.4301 15.20214477 49568
Epoch: 2026-05-13T06:56Z
TLE epoch observation values (Epoch: 2026-05-13T06:56:33.156Z)
Latitude
-0.00004°
Longitude
-86.26588°
Altitude
508.866 km
Speed
7.609 km/s
True Right ascension
16h 35m 41s
True Declination
0° 00' 00"
Sunlit
Object was in full shadow at epoch
Visualization orbit readout
Latitude
Unknown
Longitude
Unknown
Altitude
Unknown
Speed
Unknown
Apparent Right ascension
Unknown
Apparent Declination
Unknown
Sunlit
N/A
Visualization observer readout
Local Sidereal Time
01:57:05
Azimuth
Unknown
Elevation
Unknown
Doppler factor
Unknown
Orbital elements
Apogee altitude
504.206 km
Perigee altitude
500.116 km
Semi-major axis
6,880.298 km
Eccentricity
0.0003
Inclination
97.4674°
RAAN
248.9237°
Arg. of periapsis
106.726°
True anomaly
253.39746°
Mean anomaly
253.4301°
Eccentric anomaly
253.41378°
Mean motion
3.80305 °/min
Orbital period
94.66 mins
BSTAR
0.000098106
Loading maneuver chart data...
Computing Atmospheric mass density...
Loading historical data...
Loading historical data...
Loading historical data...
Loading historical data...
Loading historical data...
Loading historical data...
Loading historical data...

Documentation

Showing up to 5 results
|